TimePST,TemperatureF,Dew PointF,Humidity,Sea Level PressureIn,VisibilityMPH,Wind Direction,Wind SpeedMPH,Gust SpeedMPH,PrecipitationIn,Events,Conditions,WindDirDegrees,DateUTC
12:15 AM,46.4,42.8,87,30.29,10.0,Calm,Calm,-,N/A,,Overcast,0,2013-11-06 08:15:00
12:35 AM,46.4,42.8,87,30.29,10.0,Calm,Calm,-,N/A,,Overcast,0,2013-11-06 08:35:00
12:55 AM,46.4,42.8,87,30.29,10.0,Calm,Calm,-,N/A,,Overcast,0,2013-11-06 08:55:00
1:15 AM,46.4,44.6,93,30.30,10.0,Calm,Calm,-,N/A,,Overcast,0,2013-11-06 09:15:00
1:35 AM,46.4,42.8,87,30.29,10.0,Calm,Calm,-,N/A,,Overcast,0,2013-11-06 09:35:00
1:55 AM,46.4,42.8,87,30.30,10.0,Calm,Calm,-,N/A,,Overcast,0,2013-11-06 09:55:00
2:15 AM,46.4,42.8,87,30.30,10.0,Calm,Calm,-,N/A,,Overcast,0,2013-11-06 10:15:00
2:35 AM,46.4,42.8,87,30.30,10.0,Calm,Calm,-,N/A,,Overcast,0,2013-11-06 10:35:00
2:55 AM,46.4,42.8,87,30.30,10.0,Calm,Calm,-,N/A,,Overcast,0,2013-11-06 10:55:00
3:15 AM,46.4,42.8,87,30.29,10.0,Calm,Calm,-,N/A,,Overcast,0,2013-11-06 11:15:00
3:35 AM,46.4,42.8,87,30.29,10.0,Calm,Calm,-,N/A,,Overcast,0,2013-11-06 11:35:00
3:55 AM,46.4,42.8,87,30.29,10.0,Calm,Calm,-,N/A,,Overcast,0,2013-11-06 11:55:00
4:15 AM,44.6,42.8,93,30.30,10.0,Calm,Calm,-,N/A,,Overcast,0,2013-11-06 12:15:00
4:35 AM,44.6,42.8,93,30.30,10.0,Calm,Calm,-,N/A,,Mostly Cloudy,0,2013-11-06 12:35:00
4:55 AM,44.6,42.8,93,30.30,10.0,Calm,Calm,-,N/A,,Scattered Clouds,0,2013-11-06 12:55:00
5:15 AM,44.6,42.8,93,30.31,10.0,Calm,Calm,-,N/A,,Mostly Cloudy,0,2013-11-06 13:15:00
5:35 AM,44.6,42.8,93,30.31,10.0,Calm,Calm,-,N/A,,Overcast,0,2013-11-06 13:35:00
5:55 AM,44.6,42.8,93,30.30,10.0,Calm,Calm,-,N/A,,Overcast,0,2013-11-06 13:55:00
6:15 AM,44.6,42.8,93,30.30,10.0,Calm,Calm,-,N/A,,Overcast,0,2013-11-06 14:15:00
6:35 AM,44.6,42.8,93,30.30,10.0,Calm,Calm,-,N/A,,Overcast,0,2013-11-06 14:35:00
6:55 AM,46.4,42.8,87,30.31,10.0,Calm,Calm,-,N/A,,Overcast,0,2013-11-06 14:55:00
7:15 AM,46.4,42.8,87,30.32,10.0,Calm,Calm,-,N/A,,Overcast,0,2013-11-06 15:15:00
7:35 AM,46.4,42.8,87,30.32,9.0,Calm,Calm,-,N/A,,Overcast,0,2013-11-06 15:35:00
7:55 AM,46.4,42.8,87,30.33,10.0,NNW,3.5,-,N/A,,Overcast,340,2013-11-06 15:55:00
8:15 AM,46.4,42.8,87,30.33,10.0,North,3.5,-,N/A,,Overcast,350,2013-11-06 16:15:00
8:35 AM,46.4,42.8,87,30.33,9.0,Calm,Calm,-,N/A,,Overcast,0,2013-11-06 16:35:00
8:55 AM,46.4,42.8,87,30.33,10.0,Calm,Calm,-,N/A,,Mostly Cloudy,0,2013-11-06 16:55:00
9:15 AM,46.4,42.8,87,30.33,10.0,Calm,Calm,-,N/A,,Mostly Cloudy,0,2013-11-06 17:15:00
9:35 AM,46.4,42.8,87,30.34,10.0,Calm,Calm,-,N/A,,Overcast,0,2013-11-06 17:35:00
9:55 AM,48.2,42.8,82,30.34,10.0,North,-9999.0,-,N/A,,Overcast,0,2013-11-06 17:55:00
10:15 AM,48.2,42.8,82,30.32,10.0,Calm,Calm,-,N/A,,Overcast,0,2013-11-06 18:15:00
10:35 AM,48.2,42.8,82,30.33,10.0,NNW,4.6,-,N/A,,Overcast,340,2013-11-06 18:35:00
10:55 AM,48.2,42.8,82,30.33,10.0,Calm,Calm,-,N/A,,Overcast,0,2013-11-06 18:55:00
11:15 AM,48.2,42.8,82,30.33,10.0,Calm,Calm,-,N/A,,Overcast,0,2013-11-06 19:15:00
11:35 AM,50.0,42.8,76,30.32,10.0,Calm,Calm,-,N/A,,Overcast,0,2013-11-06 19:35:00
11:55 AM,51.8,44.6,76,30.31,10.0,North,-9999.0,-,N/A,,Mostly Cloudy,0,2013-11-06 19:55:00
12:15 PM,51.8,44.6,76,30.30,10.0,North,-9999.0,-,N/A,,Mostly Cloudy,0,2013-11-06 20:15:00
12:35 PM,51.8,44.6,76,30.29,10.0,North,-9999.0,-,N/A,,Overcast,0,2013-11-06 20:35:00
12:55 PM,51.8,44.6,76,30.28,10.0,North,-9999.0,-,N/A,,Overcast,0,2013-11-06 20:55:00
1:15 PM,51.8,44.6,76,30.28,10.0,North,-9999.0,-,N/A,,Overcast,0,2013-11-06 21:15:00
1:35 PM,51.8,44.6,76,30.27,10.0,North,-9999.0,-,N/A,,Overcast,0,2013-11-06 21:35:00
1:55 PM,53.6,46.4,77,30.26,10.0,North,-9999.0,-,N/A,,Overcast,0,2013-11-06 21:55:00
2:15 PM,53.6,46.4,77,30.26,10.0,North,-9999.0,-,N/A,,Overcast,0,2013-11-06 22:15:00
2:35 PM,53.6,46.4,77,30.25,10.0,North,-9999.0,-,N/A,,Overcast,0,2013-11-06 22:35:00
2:55 PM,53.6,46.4,77,30.25,10.0,North,-9999.0,-,N/A,,Overcast,0,2013-11-06 22:55:00
3:15 PM,53.6,46.4,77,30.25,9.0,North,-9999.0,-,N/A,,Overcast,0,2013-11-06 23:15:00
3:35 PM,51.8,48.2,88,30.24,5.0,North,-9999.0,-,N/A,,Overcast,0,2013-11-06 23:35:00
3:55 PM,51.8,48.2,88,30.24,4.0,North,-9999.0,-,0.01,,Overcast,0,2013-11-06 23:55:00
4:15 PM,51.8,48.2,88,30.23,5.0,North,-9999.0,-,0.01,,Overcast,0,2013-11-07 00:15:00
4:35 PM,51.8,48.2,88,30.22,6.0,North,-9999.0,-,0.01,,Overcast,0,2013-11-07 00:35:00
4:55 PM,51.8,48.2,88,30.21,5.0,North,-9999.0,-,0.01,,Overcast,0,2013-11-07 00:55:00
5:15 PM,51.8,48.2,88,30.21,9.0,North,-9999.0,-,N/A,,Overcast,0,2013-11-07 01:15:00
5:35 PM,51.8,48.2,88,30.20,8.0,North,-9999.0,-,N/A,,Overcast,0,2013-11-07 01:35:00
5:55 PM,51.8,48.2,88,30.20,9.0,North,-9999.0,-,0.01,,Overcast,0,2013-11-07 01:55:00
6:15 PM,51.8,48.2,88,30.20,8.0,North,-9999.0,-,N/A,,Overcast,0,2013-11-07 02:15:00
6:35 PM,51.8,48.2,88,30.19,6.0,North,-9999.0,-,N/A,,Overcast,0,2013-11-07 02:35:00
6:55 PM,51.8,48.2,88,30.19,8.0,North,-9999.0,-,N/A,,Overcast,0,2013-11-07 02:55:00
7:15 PM,51.8,48.2,88,30.19,10.0,North,-9999.0,-,N/A,,Overcast,0,2013-11-07 03:15:00
7:35 PM,51.8,48.2,88,30.18,10.0,North,-9999.0,-,0.01,,Overcast,0,2013-11-07 03:35:00
7:55 PM,51.8,48.2,88,30.18,10.0,North,-9999.0,-,0.01,,Overcast,0,2013-11-07 03:55:00
8:15 PM,51.8,48.2,88,30.17,10.0,North,-9999.0,-,0.01,,Overcast,0,2013-11-07 04:15:00
8:35 PM,51.8,48.2,88,30.17,9.0,North,-9999.0,-,0.01,,Overcast,0,2013-11-07 04:35:00
8:55 PM,51.8,48.2,88,30.17,7.0,North,-9999.0,-,0.02,,Overcast,0,2013-11-07 04:55:00
9:15 PM,51.8,48.2,88,30.16,6.0,North,-9999.0,-,0.02,,Overcast,0,2013-11-07 05:15:00
9:35 PM,51.8,48.2,88,30.15,8.0,North,-9999.0,-,0.03,,Mostly Cloudy,0,2013-11-07 05:35:00
9:55 PM,51.8,48.2,88,30.16,7.0,North,-9999.0,-,0.05,,Overcast,0,2013-11-07 05:55:00
10:15 PM,51.8,48.2,88,30.13,6.0,North,-9999.0,-,0.02,,Overcast,0,2013-11-07 06:15:00
10:35 PM,51.8,48.2,88,30.12,10.0,SE,13.8,19.6,0.03,,Overcast,140,2013-11-07 06:35:00
10:55 PM,51.8,48.2,88,30.12,10.0,SE,8.1,-,0.04,,Overcast,140,2013-11-07 06:55:00
11:15 PM,51.8,48.2,88,30.12,8.0,SE,5.8,-,0.01,,Overcast,140,2013-11-07 07:15:00
11:35 PM,51.8,48.2,88,30.11,8.0,SE,9.2,-,0.02,,Overcast,140,2013-11-07 07:35:00
11:55 PM,51.8,48.2,88,30.10,9.0,SSE,8.1,-,0.03,,Overcast,150,2013-11-07 07:55:00